COSMO-SKYMED 3

Last updated on Thu Nov 21 2024 00:02:26 GMT+0000 (Coordinated Universal Time)

1 33412U 08054A 24325.57549122 .00007904 00000+0 63009-3 0 9991 2 33412 97.8663 163.7928 0020051 49.0714 311.2241 15.00454260870717
UTC large
Height (km)
Speed (km/s)
/
Latitude / Longitude
Inclination (degrees)
Orbital Period (minutes)
Azimuth
Elevation
Range (km)
Doppler Factor

Next 0 passes for location: London (51.5072 / 0.1276)

Sorry there are no passes over London.